[Iaude] MPEC L80: 2024 LS1 [a=2.43,e=0.50,i=8.8,H=21.3]

mpec at cfa.harvard.edu mpec at cfa.harvard.edu
Fri Jun 7 07:49:16 EDT 2024


M.P.E.C. 2024-L80                                  Issued 2024 June 7, 11:47 UT

     The Minor Planet Electronic Circulars contain information on unusual
         minor planets, routine data on comets and natural satellites,
         and occasional editorial announcements.  They are published
    on behalf of Division F of the International Astronomical Union by the
          Minor Planet Center, Smithsonian Astrophysical Observatory,
                          Cambridge, MA 02138, U.S.A.
			  
             Prepared using the Tamkin Foundation Computer Network

                              MPC at CFA.HARVARD.EDU
            URL https://www.minorplanetcenter.net/    ISSN 1523-6714

                                    2024 LS1                                    


Observations:
     K24L01S*1C2024 06 05.38274220 35 50.838+00 02 49.99         20.57GVEL080G96
     K24L01S 1C2024 06 05.38753620 35 51.421+00 02 46.46         21.30GVEL080G96
     K24L01S 1C2024 06 05.39716320 35 52.591+00 02 39.34         20.74GVEL080G96
     K24L01S  C2024 06 05.42693120 35 56.083+00 02 17.13         21.1 GVEL080H01
     K24L01S  C2024 06 05.43283820 35 56.796+00 02 12.89         20.8 GVEL080H01
     K24L01S KC2024 06 05.43699220 35 57.360+00 02 09.80               VEL080I52
     K24L01S KC2024 06 05.43870820 35 57.600+00 02 09.50               VEL080I52
     K24L01S KC2024 06 05.44042820 35 57.800+00 02 07.20               VEL080I52
     K24L01S  C2024 06 05.44137120 35 57.826+00 02 06.58         21.2 GVEL080H01
     K24L01S KC2024 06 05.44213420 35 58.010+00 02 06.90         21.17GVEL080I52
     K24L01S mC2024 06 05.45801420 35 59.892+00 01 55.09         21.03GVEL080V06
     K24L01S mC2024 06 05.45881020 36 00.004+00 01 54.62         20.99GVEL080V06
     K24L01S mC2024 06 05.45960620 36 00.086+00 01 53.94         20.75GVEL080V06
     K24L01S mC2024 06 05.46040020 36 00.187+00 01 53.36         20.60GVEL080V06
     K24L01S KC2024 06 06.31056720 37 49.25 -00 08 41.1          20.8 GVEL080H21
     K24L01S KC2024 06 06.31336420 37 49.60 -00 08 43.3          21.6 GVEL080H21
     K24L01S KC2024 06 06.31616120 37 49.94 -00 08 45.5          21.3 GVEL080H21
     K24L01S 1C2024 06 06.35117720 37 54.613-00 09 09.47         21.21GVEL080G96
     K24L01S 1C2024 06 06.35603720 37 55.189-00 09 13.72         20.11GVEL080G96
     K24L01S 1C2024 06 06.36089120 37 55.758-00 09 16.67         21.49GVEL080G96
     K24L01S 1C2024 06 06.36574320 37 56.348-00 09 20.41         20.56GVEL080G96
     K24L01S KC2024 06 06.40414620 38 00.866-00 09 49.64         20.54GVEL080I52
     K24L01S KC2024 06 06.41046720 38 01.590-00 09 54.61         21.30GVEL080I52
     K24L01S KC2024 06 06.41678320 38 02.342-00 09 59.44         20.91GVEL080I52
     K24L01S KC2024 06 07.27607220 39 49.59 -00 21 06.9          20.6 GVEL080H21
     K24L01S KC2024 06 07.27886920 39 49.90 -00 21 08.7          21.0 GVEL080H21
     K24L01S KC2024 06 07.28166520 39 50.24 -00 21 11.1          21.4 GVEL080H21
     K24L01S KC2024 06 07.28446120 39 50.54 -00 21 13.2          21.3 GVEL080H21

Observer details:
G96 Mt. Lemmon Survey.  Observer G. J. Leonard.  Measurers T. Beuden, V. F.
    Carvajal, D. Fay, J. B. Fazekas, D. C. Fuls, A. R. Gibbs, A. D. Grauer, H.
    Groeller, J. K. Hogan, R. A. Kowalski, S. M. Larson, G. J. Leonard, D.
    Rankin, R. L. Seaman, F. C. Shelly, K. W. Wierzchos.  1.5-m reflector +
    10K CCD.
H01 Magdalena Ridge Observatory, Socorro.  Observers W. H. Ryan, E. V. Ryan.
    Measurer W. H. Ryan.  2.4-m f/8.9 Ritchey-Chretien + CCD.
H21 Astronomical Research Observatory, Westfield.  Observer R. Holmes.
    Measurers T. Linder, R. Holmes, L. Horn.  0.76-m f/3.0 astrograph + CCD.
I52 Steward Observatory, Mt. Lemmon Station.  Observers T. Beuden, D. Rankin.
    Measurers T. Beuden, V. F. Carvajal, D. Fay, J. B. Fazekas, D. C. Fuls, A.
    R. Gibbs, A. D. Grauer, H. Groeller, J. K. Hogan, R. A. Kowalski, S. M.
    Larson, G. J. Leonard, D. Rankin, R. L. Seaman, F. C. Shelly, K. W.
    Wierzchos.  1.0-m prime focus + CCD.
V06 Catalina Sky Survey-Kuiper.  Observer T. Beuden.  Measurers T. Beuden, V.
    F. Carvajal, D. Fay, J. B. Fazekas, D. C. Fuls, A. R. Gibbs, A. D. Grauer,
    H. Groeller, J. K. Hogan, R. A. Kowalski, S. M. Larson, G. J. Leonard, D.
    Rankin, R. L. Seaman, F. C. Shelly, K. W. Wierzchos.  1.55-m reflector +
    1K CCD.

Orbital elements:
2024 LS1                                                 Earth MOID = 0.2404 AU
Epoch 2024 Mar. 31.0 TT = JDT 2460400.5                 Veres                   
M 347.74109              (2000.0)            P               Q                  
n   0.26084830     Peri.  127.29280     -0.32484082     +0.93706619             
a   2.4259251      Node   123.27550     -0.90895081     -0.27192622             
e   0.4971089      Incl.    8.80713     -0.26131755     -0.21900477             
P   3.78           H   21.33          G   0.15           U   9                  
Residuals in seconds of arc
240605 G96  0.2+  0.1+    240605 V06  0.3-  0.0     240606 G96  0.2+  0.1+
240605 G96  0.2+  0.1+    240605 V06  0.1-  0.2+    240606 I52  0.0   0.0
240605 G96  0.2+  0.0     240605 V06  0.2-  0.0     240606 I52  0.3-  0.2-
240605 H01  0.0   0.0     240605 V06  0.2-  0.1+    240606 I52  0.1-  0.2-
240605 H01  0.0   0.0     240606 H21  0.2-  0.0     240607 H21  0.2+  0.2-
240605 I52  0.4-  0.6-    240606 H21  0.0   0.0     240607 H21  0.0   0.2+
240605 I52  0.1+  0.4+    240606 H21  0.1+  0.1-    240607 H21  0.2+  0.1+
240605 I52  0.0   0.7-    240606 G96  0.1+  0.0     240607 H21  0.2-  0.1+
240605 H01  0.1+  0.0     240606 G96  0.1+  0.6-
240605 I52  0.1+  0.3+    240606 G96  0.1-  0.1+

Ephemeris:
2024 LS1                 a,e,i = 2.43, 0.50, 9                   q = 1.2200
Date    TT    R. A. (2000) Decl.     Delta      r    Elong.  Phase     V
2024 05 08    19 15 28.3 +02 29 01   0.3931  1.2240   114.2    48.8    21.6
...
2024 05 23    20 02 14.8 +01 59 12   0.3676  1.2218   116.5    47.8    21.4
...
2024 05 31    20 23 25.9 +01 00 41   0.3591  1.2296   119.2    46.0    21.3
...
2024 06 06    20 37 09.2 -00 04 31   0.3547  1.2395   121.9    44.0    21.2
2024 06 07    20 39 14.6 -00 17 14   0.3542  1.2415   122.5    43.6    21.2
2024 06 08    20 41 16.5 -00 30 29   0.3537  1.2435   123.0    43.2    21.2
...
2024 06 14    20 52 14.0 -02 00 59   0.3517  1.2577   126.7    40.4    21.2
...
2024 06 22    21 03 28.4 -04 29 36   0.3523  1.2814   132.6    35.7    21.1
...
2024 07 07    21 14 05.5 -10 16 03   0.3663  1.3385   146.9    24.5    20.9

M. P. C. Staff               (C) Copyright 2024 MPC           M.P.E.C. 2024-L80





More information about the Iaude mailing list